Погода в Филькином

Россия / Белгородская область     50°31′31″N   38°19′55″E
темп.,
°C
ветер,
м/с
пор.,
м/с
влажн.,
%
обл.,
%
осадки,
мм/ч
давл.,
гПа
погр.,
м
8 мая, сб
сб800:00+9юв496916 0.0 1015147
03:00+9ююв6147598 0.0 1014348
06:00+10ююв61576100 0.0 1013487
09:00+14ю71269100 0.0 1011742
12:00+15ю71470100 0.0 10091279
15:00+14ю61378100 0.6 1008894
18:00+12юз51293100 3.2 1007573
21:00+11з61191100 3.4 1008663
9 мая, вс
вс900:00+7з71089100 1.4 1011748
03:00+5сз61189100 2.2 1013977
06:00+5сз61089100 0.1 1014838
09:00+6сз7979100 0.1 10161018
12:00+11сз8105599 0.0 10161744
15:00+11сз8953100 0.0 10182120
18:00+9ссз7116194 0.0 10201655
21:00+5ссз4107683 0.0 1023232
10 мая, пн
пн1000:00+3ссз39855 0.0 1024225
03:00+3сз5138230 0.0 1025335
06:00+4ссз6147911 0.0 1026414
09:00+10с8135974 0.0 10251400
12:00+13с10134799 0.0 10241823
15:00+13с91454100 0.0 10231810
18:00+11ссв91555100 0.0 10221521
21:00+10ссв101862100 0.2 1021987
11 мая, вт
вт1100:00+9ссв101975100 0.3 1020926
03:00+9ссв91979100 0.4 1019620
06:00+8ссв91788100 0.4 1019534
09:00+8св81594100 3.4 1020729
12:00+9в6118968 0.3 1020967
15:00+12всв6126995 0.4 10211897
18:00+11в7127027 0.1 10221188
21:00+7в4118620 0.1 1023304
12 мая, ср
ср1200:00+5всв4993100 0.0 1023171
03:00+7в5128297 0.0 1021322
06:00+8в5128396 0.1 1021530
09:00+11вюв587256 0.1 1021880
12:00+15вюв796183 0.3 10201621
15:00+15юв5966100 0.7 10191466
18:00+12ююз1180100 0.2 101915
21:00+12всв2379100 0.3 101837